FLOCK 3P-35 (41989 NORAD) Tracking and Keplerian Element Data

This shows tracking and keplerian element data for the satellite.

Feedback or suggestion? Click here.




ElementValue
Catalog41989
NameFLOCK 3P-35
Epoch Orbit20115
Epoch Day275.76390764
Epoch Year2020
RAAN342.3646
Inclination97.3567
Eccentricity0.0005278
Argument of Perigee277.1172
Mean Anonmoly82.9466
Mean Motion15.27180515
Decay Rate2.154E-05
L11 41989U 17008AT 20275.76390764 .00002154 00000-0 83592-4 0 9998
L22 41989 97.3567 342.3646 0005278 277.1172 82.9466 15.27180515201156



Live tracking and technical data element details for FLOCK 3P-35 (NORAD 41989). FLOCK 3P-35 can be tracked NOW for your location showing map with azimuth and elevation plus other details from your city location.







IsCatalogInMostPopularTable: catalog: 41989, numindb: 517
Update: records affected: 1



GetName: 41989 FLOCK 3P-35

Hit Count: updated at: Sat, 17 May 2025 09:00:07 GMT